Regional Weather Roundup
Issued by NWS Charleston, SC

Current Version | Previous Version | Graphics & Text | Print | Product List | Glossary On
Versions: 1 2 3 4 5 6 7 8 9 10 11 12 13 14 15 16 17 18 19 20 21 22 23 24 25 26 27 28 29 30 31 32 33 34 35 36 37 38 39 40 41 42 43 44 45 46 47 48 49 50
000
ASUS42 KCHS 290228
RWRCHS

REGIONAL WEATHER ROUNDUP
NATIONAL WEATHER SERVICE CHARLESTON SC
1000 PM EDT SUN AUG 28 2016

NOTE: "FAIR" INDICATES FEW OR NO CLOUDS BELOW 12,000 FEET WITH NO
SIGNIFICANT WEATHER AND/OR OBSTRUCTIONS TO VISIBILITY.

NOT ALL STATIONS ARE QUALITY CONTROLLED. USE DATA WITH CAUTION...
ESPECIALLY DEWPOINT OBSERVATIONS.

SCZ027-030-031-034>040-042>050-290300-
...SOUTHEAST SOUTH CAROLINA...

CITY           SKY/WX    TMP DP  RH WIND       PRES   REMARKS
N CHARLESTON   CLEAR     78  74  87 E6        30.07R
WATERFRONT PRK   N/A     80  78  94 N8        30.04R
MOUNT PLEASANT FAIR      77  75  94 CALM      30.08R
JOHNS ISLAND   FAIR      79  77  94 NE5       30.07R
PINOPOLIS        N/A     81  79  94 E8        30.00R
MONCKS CORNER  FAIR      75  73  94 CALM      30.08R
SUMMERVILLE    FAIR      77  77 100 CALM      30.09R
BEAUFORT MCAS  CLEAR     77  75  93 N5        30.08R
BEAUFORT ARPT  FAIR      81  75  83 NE8       30.07R
HILTON HEAD IS PTCLDY    82  75  78 NE6       30.08R
WALTERBORO     CLEAR     79  79 100 CALM      30.09R
ALLENDALE      FAIR      77  75  94 CALM      30.08R

...SOUTHERN MIDLANDS AND PEE DEE...

CITY           SKY/WX    TMP DP  RH WIND       PRES   REMARKS
GEORGETOWN     FAIR      77  72  83 NE3       30.09R
KINGSTREE      FAIR      77  70  78 CALM      30.09R
ORANGEBURG     CLEAR     80  72  76 E3        30.09R
BARNWELL       NOT AVBL
AIKEN          FAIR      79  70  73 SE3       30.13S
MANNING        FAIR      75  72  88 CALM      30.09R
COLUMBIA       MOCLDY    83  70  64 E7        30.09R
SUMTER         PTCLDY    80  69  68 NE5       30.07R
FLORENCE       PTCLDY    80  71  74 E6        30.11R
MYRTLE BEACH   CLEAR     79  68  69 NE8       30.10
N MYRTLE BEACH CLEAR     76  73  91 N5        30.08R

$$

GAZ063-065-086>088-099>101-113>116-118-119-134>141-150-290300-
...SOUTHEAST GEORGIA...

CITY           SKY/WX    TMP DP  RH WIND       PRES   REMARKS
SAVANNAH ARPT  MOCLDY    79  73  82 NE5       30.07R
HUNTER AAF     CLOUDY    78  78 100 S3        30.05R
FORT STEWART   CLOUDY    76  73  89 E1        30.05R
STATESBORO     PTCLDY    80  74  83 CALM      30.08R
SYLVANIA       NOT AVBL
CLAXTON        FAIR      78  76  94 NE6       30.08R

...CSRA...CENTRAL AND FAR SOUTHEAST GEORGIA...

CITY           SKY/WX    TMP DP  RH WIND       PRES   REMARKS
THOMSON        MOCLDY    85  72  64 MISG      30.13R HX  92
AUGUSTA-BUSH   CLEAR     80  72  76 S9        30.07R
AUGUSTA-DANIEL CLEAR     84  71  65 SE8       30.10R
SWAINSBORO     FAIR      82  72  69 SE8       30.08S
VIDALIA        CLEAR     81  75  83 SE5       30.07S
EASTMAN        CLOUDY    85  61  43 SE6       30.09R
HAZLEHURST     FAIR      83  69  64 CALM      30.06R
ALMA           CLEAR     80  70  71 E5        30.06R
WAYCROSS         N/A     81  77  88 E5        30.06R
JESUP          FAIR      79  77  94 CALM      30.07R
BAXLEY         FAIR      81  72  74 E3        30.07R
BRUNSWICK      CLEAR     77  73  88 CALM      30.07R
SAINT SIMONS   CLEAR     82  73  74 NE9       30.05R

$$

SCZ027-028-034-036>038-045-046-048>050-GAZ119-141-290300-
...LAKE AND SUPPLEMENTAL COASTAL OBSERVATIONS...

STATION/POSITION TIME  TEMP    WIND        PRES    WAVE   SWELL
                       AIR SEA DIR/SP/G            HT/PER HT/PER/DIR
                 (UTC) (F)     (DEG/KT/KT) (MB)    (FT/S) (FT/S/D)
WINYAH BAY       0145   81      40/  5     1018.0R
LAKE MURRAY      0200   84      70/  4/  8 1018.6R
ACE BASIN NERRS  0100   78      40/  2     1018.0S
FORT PULASKI     0200   84 85   70/ 13/ 15 1018.5R
SAPELO ISLAND    0200   81      70/  6     1018.0R

$$

ANZ835-935-AMZ111-154-330-350-352-354-370-450-454-472-290300-
...C-MAN AND BUOY OBSERVATIONS...

STATION/POSITION TIME  TEMP    WIND        PRES    WAVE   SWELL
                       AIR SEA DIR/SP/G            HT/PER HT/PER/DIR
                 (UTC) (F)     (DEG/KT/KT) (MB)    (FT/S) (FT/S/D)
BUOY 41004       0150   83 85   60/ 14/ 17 1017.0R   3/ 8   2/130/ 8
BUOY 41008       0150   83 85   60/ 14/ 16 1017.4R   3/ 9   2/110/ 9
FOLLY BEACH CMAN 0200   81      40/ 10/ 13 1018.3R
CAPERS NEARSHORE 0108   83 84   70/ 14/ 19 1017.4R
FRIPP NEARSHORE  0108   84 86   80/ 16/ 19 1016.6R


STATION/POSITION TIME  TEMP    WIND        PRES    WAVE   SWELL
                       AIR SEA DIR/SP/G            HT/PER HT/PER/DIR
                 (UTC) (F)     (DEG/KT/KT) (MB)    (FT/S) (FT/S/D)
5E ST. MARYS GA  0201      85                N/A     3/ 5
FRYING PAN BUOY  0200   84 84   60/ 14/ 16 1017.6R
BUOY 41025       0150   82 85   60/  6/  8 1018.6F   3/15   3/ 60/15
CAPE LOOKOUT NC  0200   82      70/ 12/ 14 1018.2F
BUOY 41002       0150   83 84   40/ 12/ 16 1016.5R   4/14   3/110/14
BUOY 41010       NOT AVBL
ST AUGUSTINE FL  0200   83 85   70/ 11/ 13 1017.1R


$$



USA.gov is the U.S. government's official web portal to all federal, state and local government web resources and services.